NAKANO
         **** Don't distribute anyone except personal use only ****
                (C) Copyright 2008 OAA/ComputingSection
write mail from CFAD0::NAKANO on 2008-12-18 03:31:25(JST).
 


    C/2008 J1 (Boattini)

Epoch 2008 Aug. 2.0 TT = JDT 2454680.5  

T 2008 July 13.26277 TT                                 Nakano

q   1.7242802            (2000.0)            P               Q

z  +0.0060529      Peri.   68.12339     +0.46025261     +0.12053310

 +/-0.0000047      Node   273.41920     -0.64249807     +0.72894045

e   0.9895632      Incl.   61.77973     +0.61266937     +0.67388248

a  165.2 AU         P    2124 years

From 1220 observations 2008 May 2-Oct. 1, mean residual 0".47.

   (1/a)org.= +0.006874, (1/a)fut.= +0.006339 (+/-0.000005), Q= 6.


NAKANO

         **** Don't distribute anyone except personal use only ****

                (C) Copyright 2008 OAA/ComputingSection

write mail from CFAD0::NAKANO on 2008-10-05 06:56:51(JST).

 



    C/2008 J1 (Boattini)    [At the date of 2008 Aug. 25]

Epoch 2008 Aug. 2.0 TT = JDT 2454680.5

T 2008 July 13.26525 TT                                 Nakano

q   1.7242612            (2000.0)            P               Q

z  +0.0060945      Peri.   68.12473     +0.46025715     +0.12053272

 +/-0.0000075      Node   273.41869     -0.64248356     +0.72895496

e   0.9894915      Incl.   61.77939     +0.61268118     +0.67386685

a  164.1 AU         P    2102 years

From 1040 observations 2008 May 2-Aug. 20, mean residual 0".44.

   (1/a)org.= +0.006916, (1/a)fut.= +0.006381 (+/-0.000008), Q= 6.



NAKANO

         **** Don't distribute anyone except personal use only ****

                (C) Copyright 2008 OAA/ComputingSection

write mail from CFAD0::NAKANO on 2008-09-07 23:13:57(JST).





   C/2008 J1 (Boattini)

Epoch 2008 Aug. 2.0 TT = JDT 2454680.5  

T 2008 July 13.26646 TT                                 Nakano

q   1.7242510            (2000.0)            P               Q

z  +0.0061161      Peri.   68.12538     +0.46025926     +0.12053275

 +/-0.0000114      Node   273.41842     -0.64247663     +0.72896197

e   0.9894543      Incl.   61.77922     +0.61268686     +0.67385926

a  163.5 AU         P    2091 years

From 884 observations 2008 May 2-Aug. 1, mean residual 0".45.

   (1/a)org.= +0.006937, (1/a)fut.= +0.006402 (+/-0.000011), Q= 6.



NAKANO

         **** Don't distribute anyone except personal use only ****

                (C) Copyright 2008 OAA/ComputingSection

write mail from CFAD0::NAKANO on 2008-08-02 06:17:22(JST).

    C/2008 J1 (Boattini)

T 2008 July 13.26470 TT                                 Nakano

q   1.7242379            (2000.0)            P               Q

z  +0.0061096      Peri.   68.12420     +0.46025794     +0.12054715

 +/-0.0000432      Node   273.41819     -0.64249270     +0.72894855

e   0.9894655      Incl.   61.77904     +0.61267100     +0.67387120

From 482 observations 2008 May 2-June 24.

NAKANO

         **** Don't distribute anyone except personal use only ****

                (C) Copyright 2008 OAA/ComputingSection

write mail from CFAD0::NAKANO on 2008-07-01 07:43:53(JST).

 



    C/2008 J1 (Boattini)

T 2008 July 13.28019 TT                                 Nakano

q   1.7241074            (2000.0)            P               Q

z  +0.0063098      Peri.   68.13276     +0.46026875     +0.12050244

 +/-0.0003111      Node   273.41675     -0.64239388     +0.72904202

e   0.9891212      Incl.   61.77894     +0.61276649     +0.67377808

From 220 observations 2008 May 2-26.

NAKANO

         **** Don't distribute anyone except personal use only ****

                (C) Copyright 2008 OAA/ComputingSection

write mail from CFAD0::NAKANO on 2008-05-30 05:17:26(JST).





◎C/2008 J1の軌道と予報位置



 彗星のCCD全光度は,5月5日に13.9等(安部裕史;八束),6日に13.8等,

11日に13.7等でした.



    C/2008 J1 (Boattini)

T 2008 July 13.00038 TT                                 Nakano

q   1.7268230            (2000.0)            P               Q

                   Peri.   67.99741     +0.45997437     +0.12041289

                   Node   273.47918     -0.64375871     +0.72760124

e   1.0            Incl.   61.80614     +0.61155401     +0.67534967

From 121 observations 2008 May 2-14.

 

Date/        TT  R.A.(2000) Decl.     Delta   r     Daily motion  Mag.  Moon Age

              h    h  m       。  ,                      ,  / PA 。  m1      。

2008 May  15 18  21 17.12  +20 37.1   1.654  1.885    52.5 /  17  13.3  133  .83

          16 18  21 18.23  +21 27.3   1.643  1.880    52.9 /  17  13.3  125  .90

          17 18  21 19.34  +22 17.9   1.632  1.875    53.3 /  17  13.3  116  .95

          18 18  21 20.45  +23 09.0   1.621  1.870    53.7 /  16  13.3  107  .98

          19 18  21 21.54  +24 00.5   1.611  1.865    54.1 /  16  13.2   98 1.00

          20 18  21 22.64  +24 52.5   1.601  1.861    54.4 /  16  13.2   90  .99

          21 18  21 23.72  +25 44.9   1.592  1.856    54.7 /  15  13.2   81  .97

          22 18  21 24.79  +26 37.7   1.583  1.851    55.1 /  15  13.2   72  .94

          23 18  21 25.86  +27 30.9   1.574  1.847    55.3 /  15  13.1   64  .88

          24 18  21 26.92  +28 24.4   1.565  1.842    55.6 /  14  13.1   57  .81

          25 18  21 27.98  +29 18.3   1.557  1.838    55.9 /  14  13.1   50  .73

          26 18  21 29.02  +30 12.4   1.549  1.833    56.1 /  14  13.1   45  .64

          27 18  21 30.06  +31 06.9   1.542  1.829    56.3 /  13  13.1   42  .54

          28 18  21 31.09  +32 01.7   1.534  1.825    56.5 /  13  13.0   42  .43

          29 18  21 32.12  +32 56.7   1.527  1.821    56.7 /  13  13.0   45  .33

          30 18  21 33.13  +33 52.0   1.521  1.817    56.8 /  13  13.0   50  .23

          31 18  21 34.13  +34 47.4   1.515  1.813    56.9 /  12  13.0   57  .14

     June  1 18  21 35.13  +35 43.0   1.509  1.809    57.0 /  12  13.0   66  .07

NAKANO

         **** Don't distribute anyone except personal use only ****

                (C) Copyright 2008 OAA/ComputingSection

write mail from CFAD0::NAKANO on 2008-05-17 05:33:04(JST).

 

◎C/2008 J1の軌道と予報位置    [From JSGA Web. News No. 132]



JSGA Web News No. 132                                               2008 May 4



ボアッティーニ彗星(2008 J1)の初期観測

 美星スペースガードセンターの浅見敦夫氏と坂本強氏は,1.0-m f/3.0 反射望遠鏡

で5月3日 JSTに小惑星センターの NEO confirmation pageにある未確認天体 8J0E697

の次の追跡観測を行なったところ,この天体には,視直径 20"のコマと位置角230゚の

方向に 24"の尾があることを観測した.この天体は,68-cm シュミットを使用して行

なわれている米国カテリナ・スカイサーベイで,2008年5月2日UTにこうま座を撮影

した捜索フレーム上にボアッティーニによって,彗星状天体として発見された14等級

の天体で,発見当時,約 50"のコマと2'の扇形の尾が見られることが報告されていた.

なお,同夜,守山の井狩康一氏も,この天体の追跡観測を行なったが,形状の報告は

なかった.



     8J0E697  C2008 05 02.73143 21 01 59.31 +10 31 08.8          14.8 T      300

     8J0E697  C2008 05 02.73219 21 01 59.38 +10 31 10.9                      300

     8J0E697  C2008 05 02.73293 21 01 59.40 +10 31 13.5                      300

     8J0E697  C2008 05 02.73368 21 01 59.46 +10 31 15.4                      300

     8J0E697  C2008 05 02.73442 21 01 59.52 +10 31 17.0                      300

     8J0E697  C2008 05 02.73519 21 01 59.58 +10 31 19.0                      300



 次の軌道は,2008年5月2日と3日に行なわれた49個の観測から決定されたもの.

5月3/4日夜 JSTには,上尾の門田健一氏,八束の安部裕史氏,井狩氏の観測が報告

された.彗星のCCD全光度は,門田氏が13.9等,安部氏が14.1等であった.なお,米

国のヘールによって,5月2日UTに彗星は,眼視観測され,その眼視全光度が13.4等

と報告されている.



    C/2008 J1 (Boattini)

   T = 2008 June 15.834 TT    ω =  52.257

                               Ω = 271.279    (2000.0)

   q =   1.85977 AU           i =  58.710



2008/        α  (2000) δ      △      r    Daily motion  Elong. Phase    m1 

 27h JST    h  m       。  ,        AU      AU      ,     。     。      。      等

May   1   21 00.79  +09 49.1    1.815   1.944    46.5/ 23    81.7   30.9   13.7

      2   21 02.01  +10 32.0    1.803   1.941    46.8/ 22    82.1   31.0   13.7

      3   21 03.21  +11 15.3    1.791   1.937    47.1/ 22    82.5   31.1   13.6

      4   21 04.40  +11 59.0    1.780   1.934    47.4/ 21    82.9   31.2   13.6

      5   21 05.58  +12 43.1    1.768   1.930    47.7/ 21    83.3   31.3   13.6

      6   21 06.75  +13 27.7    1.757   1.927    48.0/ 21    83.6   31.4   13.6

      7   21 07.91  +14 12.7    1.747   1.924    48.3/ 20    84.0   31.5   13.6

      8   21 09.06  +14 58.0    1.736   1.921    48.6/ 20    84.4   31.5   13.5

      9   21 10.20  +15 43.8    1.726   1.917    48.9/ 19    84.7   31.6   13.5

     10   21 11.33  +16 29.9    1.716   1.914    49.2/ 19    85.1   31.7   13.5

     11   21 12.45  +17 16.4    1.706   1.911    49.4/ 19    85.4   31.8   13.5

     12   21 13.55  +18 03.2    1.696   1.909    49.7/ 18    85.7   31.9   13.5

     13   21 14.65  +18 50.4    1.687   1.906    49.9/ 18    86.0   31.9   13.4

     14   21 15.73  +19 37.9    1.678   1.903    50.2/ 17    86.4   32.0   13.4

     15   21 16.81  +20 25.7    1.669   1.901    50.4/ 17    86.7   32.1   13.4

     16   21 17.87  +21 13.9    1.661   1.898    50.6/ 17    87.0   32.1   13.4

     17   21 18.92  +22 02.3    1.653   1.896    50.8/ 16    87.2   32.2   13.4

     18   21 19.95  +22 51.0    1.645   1.893    51.0/ 16    87.5   32.3   13.4

     19   21 20.98  +23 40.0    1.637   1.891    51.1/ 16    87.8   32.3   13.3

     20   21 21.99  +24 29.2    1.630   1.889    51.3/ 15    88.0   32.4   13.3

     21   21 22.99  +25 18.6    1.623   1.886    51.4/ 15    88.3   32.4   13.3

     22   21 23.97  +26 08.2    1.616   1.884    51.5/ 15    88.5   32.5   13.3

     23   21 24.95  +26 58.1    1.609   1.882    51.6/ 14    88.7   32.5   13.3

     24   21 25.90  +27 48.1    1.603   1.880    51.7/ 14    89.0   32.6   13.3

     25   21 26.85  +28 38.2    1.597   1.879    51.7/ 14    89.2   32.6   13.3

     26   21 27.78  +29 28.5    1.591   1.877    51.8/ 13    89.4   32.7   13.2

     27   21 28.69  +30 18.9    1.586   1.875    51.8/ 13    89.5   32.7   13.2

     28   21 29.59  +31 09.4    1.581   1.874    51.8/ 13    89.7   32.7   13.2

     29   21 30.47  +31 59.9    1.576   1.872    51.8/ 12    89.9   32.8   13.2

